Brownsville, TX

11:42 PM CDT on April 27, 2017 (GMT -0500)
Brownsville-South Padre I International

Weather History for KBRO - February, 2013

Change the Weather History Date:

Wednesday, February 27, 2013

  Actual Average Record
Temperature  
Mean Temperature 66 °F 66 °F  
Max Temperature 82 °F 76 °F 94 °F (1954)
Min Temperature 49 °F 57 °F 35 °F (1912)
Degree Days  
Heating Degree Days 0 3  
Month to date heating degree days 31 104  
Since 1 July heating degree days 287 503  
Cooling Degree Days 1 4  
Month to date cooling degree days 147 78  
Year to date cooling degree days 221 137  
Growing Degree Days 15 (Base 50)    
Moisture  
Dew Point 53 °F    
Average Humidity 69    
Maximum Humidity 100    
Minimum Humidity 38    
Precipitation  
Precipitation 0.00 in 0.04 in 0.97 in (1889)
Month to date precipitation 0.01 1.04  
Year to date precipitation 1.48 2.31  
Sea Level Pressure  
Sea Level Pressure 30.01 in    
Wind  
Wind Speed 7 mph (ENE)    
Max Wind Speed 18 mph    
Max Gust Speed 24 mph    
Visibility 9 miles    
Events      
T = Trace of Precipitation, MM = Missing Value Source: NWS Daily Summary

Daily Weather History Graph

Daily Weather History Graph

Search for Another Location

Airport or City:

Trip Planner

Search our weather history database for the weather conditions in past years. The results will help you decide how hot, cold, wet, or windy it might be!

Date:

Astronomy

Feb. 27, 2013 Rise Set
Actual Time 6:54 AM CST 6:30 PM CST
Civil Twilight 6:31 AM CST 6:53 PM CST
Nautical Twilight 6:04 AM CST 7:20 PM CST
Astronomical Twilight 5:38 AM CST 7:47 PM CST
Moon 8:33 PM CST (2/27) 7:47 AM CST (2/27)
Length of Visible Light 12h 22m
Length of Day
11h 35m
Waning Gibbous, 96% of the Moon is Illuminated
Feb 27
Waning Gibbous
Mar 4
Last Quarter
Mar 11
New
Mar 19
First Quarter
Mar 27
Full

Hourly Weather History & Observations

Time (CST) Temp. Heat Index Dew Point Humidity Pressure Visibility Wind Dir Wind Speed Gust Speed Precip Events Conditions
12:53 AM 54.0 °F - 50.0 °F 86% 29.92 in 10.0 mi SE 3.5 mph - N/A   Clear
1:53 AM 53.1 °F - 50.0 °F 89% 29.91 in 10.0 mi SSE 6.9 mph - N/A   Clear
2:53 AM 57.0 °F - 53.1 °F 87% 29.90 in 10.0 mi ESE 3.5 mph - N/A   Clear
3:53 AM 53.1 °F - 51.1 °F 93% 29.88 in 10.0 mi SSE 4.6 mph - N/A   Clear
4:53 AM 54.0 °F - 52.0 °F 93% 29.89 in 10.0 mi Calm Calm - N/A   Clear
5:53 AM 51.1 °F - 50.0 °F 96% 29.90 in 10.0 mi SSE 4.6 mph - N/A   Clear
6:53 AM 54.0 °F - 53.1 °F 97% 29.91 in 10.0 mi ESE 3.5 mph - N/A   Clear
7:53 AM 60.1 °F - 57.9 °F 93% 29.96 in 10.0 mi Calm Calm - N/A   Clear
8:53 AM 69.1 °F - 59.0 °F 70% 29.99 in 10.0 mi South 5.8 mph - N/A   Clear
9:53 AM 73.0 °F - 55.9 °F 55% 30.01 in 10.0 mi SSW 12.7 mph - N/A   Clear
10:53 AM 77.0 °F - 55.9 °F 48% 30.02 in 10.0 mi SW 17.3 mph 20.7 mph N/A   Scattered Clouds
11:53 AM 78.1 °F - 55.0 °F 45% 30.03 in 10.0 mi WSW 8.1 mph - N/A   Partly Cloudy
12:53 PM 78.1 °F - 54.0 °F 43% 30.01 in 10.0 mi NNW 5.8 mph - N/A   Overcast
1:53 PM 80.1 °F 79.9 °F 53.1 °F 39% 29.99 in 10.0 mi WNW 9.2 mph - N/A   Partly Cloudy
2:53 PM 79.0 °F - 52.0 °F 39% 29.99 in 10.0 mi Calm Calm - N/A   Partly Cloudy
3:18 PM 78.8 °F - 57.2 °F 47% 29.99 in 10.0 mi NE 8.1 mph - N/A   Mostly Cloudy
3:53 PM 79.0 °F - 57.0 °F 47% 29.99 in 10.0 mi ENE 13.8 mph 18.4 mph N/A   Clear
4:48 PM 71.6 °F - 59.0 °F 64% 30.01 in 3.0 mi NE 16.1 mph 23.0 mph N/A   Haze
4:53 PM 72.0 °F - 59.0 °F 64% 30.01 in 2.5 mi NE 12.7 mph 23.0 mph N/A   Smoke
5:00 PM 71.6 °F - 57.2 °F 60% 30.02 in 3.0 mi NE 15.0 mph 21.9 mph N/A   Smoke
5:17 PM 71.6 °F - 57.2 °F 60% 30.02 in 4.0 mi NE 15.0 mph 21.9 mph N/A   Smoke
5:53 PM 73.0 °F - 46.0 °F 38% 30.03 in 10.0 mi NE 11.5 mph 19.6 mph N/A   Smoke
6:53 PM 66.9 °F - 51.1 °F 57% 30.06 in 10.0 mi NE 8.1 mph 17.3 mph N/A   Smoke
6:55 PM 66.2 °F - 51.8 °F 60% 30.07 in 10.0 mi NE 9.2 mph - N/A   Clear
7:53 PM 63.0 °F - 54.0 °F 72% 30.10 in 10.0 mi NE 4.6 mph - N/A   Clear
8:53 PM 62.1 °F - 55.9 °F 80% 30.12 in 10.0 mi NNE 4.6 mph - N/A   Clear
9:53 PM 61.0 °F - 55.0 °F 81% 30.14 in 10.0 mi NNE 8.1 mph - N/A   Clear
10:53 PM 60.1 °F - 52.0 °F 75% 30.15 in 10.0 mi NNE 6.9 mph - N/A   Clear
11:53 PM 59.0 °F - 46.9 °F 64% 30.15 in 10.0 mi NNE 5.8 mph - N/A   Clear